Regional Weather Roundup
Issued by NWS State College, PA

Home | Current Version | Previous Version | Text Only | Print | Product List | Glossary On
Versions: 1 2 3 4 5 6 7 8 9 10 11 12 13 14 15 16 17 18 19 20 21 22 23 24 25 26 27 28 29 30 31 32 33 34 35 36 37 38 39 40 41 42 43 44 45 46 47 48 49 50
000
ASUS41 KCTP 211510
RWRCTP

REGIONAL WEATHER ROUNDUP
NATIONAL WEATHER SERVICE STATE COLLEGE PA
1100 AM EDT TUE OCT 21 2014

Note: "fair" indicates few or no clouds below 12,000 feet with no
significant weather and/or obstructions to visibility.

* = STATION THAT DOES NOT REPORT PRECIPITATION /E.G. RAIN...SNOW...ETC/
    THUNDER OR FOG.

PAZ002>004-007>009-013>016-020>023-029>032-211600-
WESTERN PENNSYLVANIA

CITY           SKY/WX    TMP DP  RH WIND       PRES   REMARKS
ERIE           CLOUDY    52  46  80 NW9       29.88R
MEADVILLE      LGT RAIN  49  47  93 NW3       29.87S
FRANKLIN*      CLOUDY    48  45  87 NW5       29.88S
NEW CASTLE     LGT RAIN  50  49  96 CALM      29.91R
BEAVER COUNTY  LGT RAIN  50  48  93 NW6       29.89R
BUTLER*        PTSUNNY   48  45  87 NW6G16    29.90R
PITTSBURGH INT CLOUDY    53  48  83 N13       29.88R
PITTSBURGH     CLOUDY    54  47  77 SW8       29.87S HAZE
INDIANA*       CLOUDY    50  50 100 SW5       29.91S FOG
LATROBE        CLOUDY    52  52 100 SW9       29.89S FOG
WASHINGTON CO* CLOUDY    52  48  87 W5        29.90S
$$

PAZ004>006-010>012-017>019-024>028-033>037-041-042-045-046-049>053-211600-
CENTRAL PENNSYLVANIA

CITY           SKY/WX    TMP DP  RH WIND       PRES   REMARKS
BRADFORD       CLOUDY    49  45  86 SW5       29.85S FOG
DUBOIS         LGT RAIN  50  48  93 CALM      29.85S
CLEARFIELD     CLOUDY    52  50  93 CALM      29.87S
JOHNSTOWN      CLOUDY    47  46  97 W7        29.87S FOG
ALTOONA        CLOUDY    53  49  86 W3        29.87S
STATE COLLEGE  CLOUDY    52  48  87 W8        29.86S
WILLIAMSPORT   PTSUNNY   52  45  77 CALM      29.86S
SELINSGROVE    CLOUDY    55  49  80 CALM      29.87F
FT INDIANTOWN  CLOUDY    55  55 100 VRB3      29.88S
CAPITAL CITY   PTSUNNY   57  52  83 CALM      29.88S HAZE
HARRISBURG     CLOUDY    54  52  93 W3        29.87S FOG
YORK           PTSUNNY   58  51  78 W5        29.87S
$$

PAZ038>040-043-044-047-048-054-055-060>062-067>071-211600-
EASTERN PENNSYLVANIA

CITY           SKY/WX    TMP DP  RH WIND       PRES   REMARKS
SCRANTON       CLOUDY    57  50  77 CALM      29.86F
MOUNT POCONO   CLOUDY    50  47  89 SE3       29.88S
ALLENTOWN      CLOUDY    57  49  74 CALM      29.88F
QUAKERTOWN*    SUNNY     59  50  72 CALM      29.88F
READING        PTSUNNY   58  50  75 CALM      29.87S
LANCASTER      MOSUNNY   57  50  77 CALM      29.87F
COATESVILLE    SUNNY     59  50  72 S3        29.88S
POTTSTOWN      MOSUNNY   60  49  66 CALM      29.89F
BLUE BELL      SUNNY     61  50  67 CALM      29.86F
DOYLESTOWN     SUNNY     59  49  69 CALM      29.87F
WILLOW GROVE   NOT AVBL
NORTH PHILA    PTSUNNY   61  49  64 CALM      29.89F
PHILADELPHIA   PTSUNNY   61  51  70 SW3       29.88F
$$


USA.gov is the U.S. government's official web portal to all federal, state and local government web resources and services.